Starlink 3320

operational
NORAD ID: 50839 Int'l Des: 2022-001 Owner: SPXS Country: US Constellation: starlink
LEOCIRCULAR

Starlink 3320について

説明を読み込み中...

リアルタイム位置

3D地球を読み込み中...

次回通過

高度履歴

Altitude vs Time

uPlot chart will show altitude changes over time

軌道要素

1 50839U 22001AN 25307.49606843 .00003431 00000-0 23363-3 0 9998
2 50839 53.2182 25.6236 0001406 87.5409 272.5744 15.08832949211202
Epoch: Nov 3, 2025 • Age: 23 hours

現在のステータス

高度 552.0 km
速度 7.59 km/s
衛星直下点 -36.00°S, 22.56°E
打ち上げ日 Jan 6, 2022
運用期間 3.8 years
タイプ internet

技術仕様

分類 Payload
質量 297.00 kg
乾燥質量 275.00 kg
総質量 297.00 kg
長さ 0.20 m
直径 2.80 m
スパン 9.00 m
形状 Box + pan
製造者 SPXS
バスタイプ Starlink
フェーズステータス In Orbit
所有者/国 SPXS/US

大規模コンステレーション

Loading constellations...